Regional Weather Roundup
Issued by NWS

Home | Current Version | Previous Version | Text Only | Print | Product List | Glossary Off
Versions: 1 2 3 4 5 6 7 8 9 10 11 12 13 14 15 16 17 18 19 20 21 22 23 24 25 26 27 28 29 30 31 32 33 34 35 36 37 38 39 40 41 42 43 44 45 46 47 48 49 50

000
ASUS43 KBIS 220520
RWRND

NORTH DAKOTA REGIONAL WEATHER ROUNDUP
NATIONAL WEATHER SERVICE BISMARCK ND
1200 AM CDT WED OCT 22 2014

NOTE: "FAIR" INDICATES FEW OR NO CLOUDS BELOW 12,000 FEET WITH NO
SIGNIFICANT WEATHER AND/OR OBSTRUCTIONS TO VISIBILITY.


NDZ001>003-009>011-017-220600-
NORTHWEST NORTH DAKOTA

CITY           SKY/WX    TMP DP  RH WIND       PRES   REMARKS
WILLISTON      PTCLDY    48  41  76 CALM      29.60S
MINOT          CLEAR     65  41  41 S21G30    29.57F
MINOT AFB      CLEAR     60  47  61 S13       29.57F
$$

NDZ018>021-031>035-040>046-220600-
SOUTHWEST NORTH DAKOTA

CITY           SKY/WX    TMP DP  RH WIND       PRES   REMARKS
BISMARCK       CLEAR     66  39  37 S22       29.66F
DICKINSON      PTCLDY    53  42  66 S7        29.63S
GARRISON         N/A     64  47  53 S9        29.61S
HETTINGER ARPT PTCLDY    60  44  55 SW7       29.67S
$$

NDZ004>008-012>016-024-026-027-054-220600-
NORTHEAST NORTH DAKOTA

CITY           SKY/WX    TMP DP  RH WIND       PRES   REMARKS
GRAND FORKS    CLEAR     55  41  59 S22G29    29.85F
GRND FRKS AFB  CLEAR     55  42  61 S23       29.84F
DEVILS LAKE    PTCLDY    59  43  55 S23       29.72F
$$

NDZ022-023-025-028>030-036>039-047>053-220600-
SOUTHEAST NORTH DAKOTA

CITY           SKY/WX    TMP DP  RH WIND       PRES   REMARKS
FARGO          FAIR      56  41  57 SE22G37   29.91S
JAMESTOWN      PTCLDY    58  44  60 SE13      29.79S
$$




USA.gov is the U.S. government's official web portal to all federal, state and local government web resources and services.